This demonstration page uses our WeatherBlox Daily Observations layout. Learn more.

39.92423, -83.80882

Hourly Observations for May 1, 2016

Temp ( °F °C ) Dew Point ( °F °C ) Humidity (%) Winds ( mph kmh ) Pressure ( in mb ) Visibility ( mi km ) Precip ( " mm )
12:33 am 00:33 Cloudy 57 14 57 14 100 100 S 8 13 29.91 1013 9 14.48406 0 0
12:56 am 00:56 Cloudy 58 14.4 58 14.4 100 100 S 8 13 29.91 1013 8 12.87472 0 0
1:56 am 01:56 Cloudy with Mist and Fog 59 15 59 15 100 100 SSW 6 9 29.91 1013 5 8.0467 0 0
2:56 am 02:56 Cloudy with Mist and Fog 60 15.5 60 15.5 100 100 SW 8 13 29.9 1013 5 8.0467 0 0.0254
3:56 am 03:56 Mostly Cloudy 60 15.5 60 15.5 100 100 S 8 13 29.86 1011 8 12.87472 0 0
4:46 am 04:46 Cloudy 61 16 61 16 100 100 SW 9 15 29.91 1013 8 12.87472 0 0
4:56 am 04:56 Cloudy 60 15.5 60 15.5 100 100 SW 10 17 29.89 1012 9 14.48406 0 0
5:56 am 05:56 Cloudy 61 16.1 61 16.1 100 100 SSW 10 17 29.91 1013 10 16.0934 0 0
6:56 am 06:56 Cloudy with Mist and Fog 60 15.5 60 15.5 100 100 SW 7 11 29.92 1013 6 9.65604 0 0
7:56 am 07:56 Cloudy with Mist and Fog 61 16.1 61 16.1 100 100 Calm 29.93 1014 2.5 4.02335 0 0
8:07 am 08:07 Cloudy with Mist and Fog 61 16 61 16 100 100 Calm 29.94 1014 3 4.82802 0 0
8:42 am 08:42 Cloudy with Mist and Fog 63 17 63 17 100 100 SE 3 6 29.91 1013 2.5 4.02335 0 0
8:56 am 08:56 Cloudy with Mist and Fog 61 16.1 61 16.1 100 100 SE 5 7 29.94 1014 2.5 4.02335 0 0
9:09 am 09:09 Cloudy with Mist and Fog 63 17 63 17 100 100 SSE 6 9 29.91 1013 3 4.82802 0 0
9:24 am 09:24 Cloudy with Mist and Fog 63 17 63 17 100 100 SSE 5 7 29.97 1015 4 6.43736 0 0
9:56 am 09:56 Cloudy with Mist and Fog 63 17.2 63 17.2 100 100 S 7 11 29.95 1014 5 8.0467 0 0
10:32 am 10:32 Cloudy 64 18 64 18 100 100 SSW 6 9 29.94 1014 10 16.0934 0 0
10:56 am 10:56 Cloudy 65 18.3 64 17.7 96 96 SW 6 9 29.95 1014 10 16.0934 0 0
11:20 am 11:20 Mostly Cloudy 66 19 64 18 94 94 WSW 5 7 29.94 1014 10 16.0934 0 0
11:56 am 11:56 Mostly Cloudy 69 20.5 63 17.2 81 81 SSW 6 9 29.95 1014 10 16.0934 0 0
12:56 pm 12:56 Mostly Cloudy 71 21.6 62 16.6 73 73 WNW 7 11 29.94 1014 10 16.0934 0 0
1:07 pm 13:07 Partly Cloudy 72 22 63 17 73 73 WSW 8 13 29.91 1013 10 16.0934 0 0
1:56 pm 13:56 Sunny 75 23.8 61 16.1 62 62 WSW 9 15 29.92 1013 10 16.0934 0 0
2:56 pm 14:56 Mostly Sunny 76 24.4 60 15.5 58 58 WSW 7 11 29.92 1013 10 16.0934 0 0
3:56 pm 15:56 Mostly Sunny 77 25 59 15 54 54 W 14 22 29.91 1013 10 16.0934 0 0
4:56 pm 16:56 Mostly Sunny 78 25.5 55 12.7 45 45 WSW 7 11 29.89 1012 10 16.0934 0 0
5:56 pm 17:56 Mostly Sunny 77 25 56 13.3 48 48 WNW 7 11 29.89 1012 10 16.0934 0 0
6:56 pm 18:56 Partly Cloudy 76 24.4 57 13.8 52 52 NW 6 9 29.89 1012 10 16.0934 0 0
7:56 pm 19:56 Partly Cloudy 72 22.2 61 16.1 68 68 S 5 7 29.87 1012 10 16.0934 0 0.0254
8:56 pm 20:56 Mostly Clear 67 19.4 63 17.2 87 87 SE 6 9 29.89 1012 10 16.0934 0 0
9:32 pm 21:32 Mostly Cloudy 66 19 59 15 78 78 S 5 7 29.88 1012 7 11.26538 0.01 0.254
9:41 pm 21:41 Cloudy with Heavy Thunderstorms 64 18 61 16 88 88 SSW 6 9 29.91 1013 1.75 2.816345 0.08 2.032
9:48 pm 21:48 Cloudy with Mist and Fog 63 17 61 16 94 94 S 5 7 29.91 1013 1.5 2.41401 0.12 3.048
9:56 pm 21:56 Cloudy with Thunderstorms 63 17.2 61 16.1 93 93 W 5 7 29.9 1013 2 3.21868 0.17 4.318
10:05 pm 22:05 Cloudy with Light Thunderstorms 63 17 63 17 100 100 NW 8 13 29.88 1012 3 4.82802 0.01 0.254
10:19 pm 22:19 Cloudy with Light Rain 63 17 63 17 100 100 N 7 11 29.85 1011 10 16.0934 0.01 0.254
10:56 pm 22:56 Cloudy 61 16.1 61 16.1 100 100 ENE 7 11 29.89 1012 10 16.0934 0.02 0.508
11:56 pm 23:56 Clear 60 15.5 60 15.5 100 100 ESE 6 9 29.86 1011 10 16.0934 0 0

Powered by AerisWeather